Regional Weather Roundup
Issued by NWS Grand Forks, ND

Home | Current Version | Previous Version | Graphics & Text | Print | Product List | Glossary On
Versions: 1 2 3 4 5 6 7 8 9 10 11 12 13 14 15 16 17 18 19 20 21 22 23 24 25 26 27 28 29 30 31 32 33 34 35 36 37 38 39 40 41 42 43 44 45 46 47 48 49 50
000
ASUS43 KFGF 290710
RWRFGF
PRAIRIE TO PINES  WEATHER ROUNDUP
NATIONAL WEATHER SERVICE EASTERN NORTH DAKOTA/GRAND FORKS ND
200 AM CDT SUN MAR 29 2015

 **SATELLITE DATA USED TO AUGMENT SKY COVER AT AUTOMATED STATIONS**
 *****  WEATHER ACROSS EASTERN NORTH DAKOTA  *****

CITY           SKY/WX    TMP DP  RH WIND       PRES   REMARKS
GRAND FORKS    CLOUDY    41  36  82 S21G29    29.45F
GRAND FRKS AFB CLOUDY    43  37  81 SW22G30   29.43F
GRAND FRKS NWS   N/A     39 N/A N/A S32         N/A
DEVILS LAKE    CLOUDY    46  43  87 W20       29.43S
FARGO          LGT RAIN  43  32  65 S17       29.57F
WAHPETON ARPT  CLOUDY    39  30  70 S14G20    29.62F
$$

 ***** WEATHER ACROSS CENTRAL AND WESTERN NORTH DAKOTA  *****

CITY           SKY/WX    TMP DP  RH WIND       PRES   REMARKS
BISMARCK       CLOUDY    48  41  76 W17       29.61F
MINOT          LGT RAIN  46  43  89 NW31G38   29.58R
JAMESTOWN      CLOUDY    49  45  86 W17G24    29.50F
MINOT AFB      CLOUDY    44  44 100 NW29G38   29.58R
GARRISON         N/A     46  43  89 W17G29    29.58R
WILLISTON      CLOUDY    41  37  86 NW22G39   29.79R
DICKINSON      RAIN      42  38  85 W30G40    29.67R
HETTINGER      PTCLDY    46  33  60 W35G45    29.71F
$$

 *****  OTHER AIRPORT OBSERVATIONS IN OUR AREA  *****

CITY           SKY/WX    TMP DP  RH WIND       PRES   REMARKS
WALHALLA         N/A     39  39 100 SE5       29.40F
GRAFTON AIRPOR NOT AVBL
VALLEY CITY AR PTSUNNY   43  43 100 SW17G23   29.51F FOG
CANDO          NOT AVBL
CAVALIER APRT  MIX PCPN  39  37  93 S8        29.40F
GWINNER        PTSUNNY   45  39  81 SW18        N/A
SHEYENNE NWR     N/A     42  36  79 S8        29.95S
ROLLA          MIX PCPN  41  41 100 NW30G41   29.49R
 ***** THE ABOVE OBSERVATIONS ARE NON NWS ARE NOT QUALITY
       CONTROLLED AND MAY MIS-REPORT RAIN FOR SNOW...
$$

  *****  WEATHER ACROSS NORTHERN MINNESOTA  *****

CITY           SKY/WX    TMP DP  RH WIND       PRES   REMARKS
FLAG ISLAND    RAIN      34  30  86 S18       29.46F WCI  23
WARROAD        RAIN      39  36  87 S14G23    29.49F
ROSEAU         RAIN      37  34  87 S18G26    29.47F
HALLOCK        LGT RAIN  39  37  93 S17       29.42F
THF RVR FALLS  CLOUDY    39  36  87 S29G36    29.46F
BAUDETTE       LGT RAIN  37  31  78 S15G24    29.52F
WASKISH        CLOUDY    39  28  65 CALM      29.56F
CROOKSTON      MIX PCPN  37  37 100 S30       29.51F
STEPHEN NDAWN    N/A     39  37  93 S20         N/A
GREENBUSH NDAW   N/A     39  36  87 S20         N/A
$$
  *****  WEATHER ACROSS CENTRAL AND WEST MINNESOTA  *****

CITY           SKY/WX    TMP DP  RH WIND       PRES   REMARKS
FOSSTON        LGT RAIN  39  30  70 S23G30    29.54F
BEMIDJI        CLOUDY    38  27  62 S16       29.60F
PARK RAPIDS    MOCLDY    40  26  57 S16       29.65F
ELBOW LAKE     CLOUDY    36  32  84 S17       29.67F
WADENA         MOCLDY    36  27  69 S7        29.69F
DETROIT LAKES  CLOUDY    41  32  70 S21G29    29.61F
MOORHEAD       CLOUDY    41  34  75 S18       29.59F
FERGUS FALLS   LGT RAIN  37  28  70 S16       29.67F
MORRIS MN      CLOUDY    37  30  75 S9        29.69R
STAPLES        MOCLDY    37  27  65 S12       29.72R
$$
  *****  WEATHER ELSEWHERE ACROSS MINNESOTA  *****

CITY           SKY/WX    TMP DP  RH WIND       PRES   REMARKS
DULUTH         CLOUDY    34  17  50 S20       29.74F WCI  23
INTRNTL FALLS  MOCLDY    37  24  59 S8G22     29.59F
ELY            CLOUDY    34  19  55 SW14G23   29.74R WCI  24
CLOQUET        MOCLDY    36  18  48 S18       29.75F
WHEATON        CLOUDY    37  30  75 SE9       29.66F
BRAINERD       MOCLDY    36  23  59 SW13      29.78R
HIBBING        CLOUDY    34  19  54 W9        29.79R
ALEXANDRIA     CLOUDY    39  28  64 S17G29    29.71R
SAINT CLOUD    MOCLDY    38  23  55 S20G31    29.76F
MINNEAPOLIS    PTCLDY    35  21  56 S14       29.87F
$$

  *****  WEATHER ACROSS SOUTH DAKOTA  *****

CITY           SKY/WX    TMP DP  RH WIND       PRES   REMARKS
SIOUX FALLS    CLOUDY    44  31  60 S26G36    29.70F
BROOKINGS      NOT AVBL
WATERTOWN      LGT RAIN  44  34  67 S21G32    29.64R
HURON          MOCLDY    44  33  65 S9        29.66S
SISSETON         N/A     46  34  62 SW14      29.61F
ABERDEEN       CLOUDY    47  36  65 S12       29.62F
MITCHELL       MOCLDY    49  35  58 S7        29.67R
PIERRE         CLEAR     48  39  71 NW12      29.74R
MOBRIDGE       CLEAR     45  40  82 W9        29.65R
RAPID CITY     CLEAR     54  15  21 NW33G49   29.85R
$$

  *****  SOME WEATHER IN NEARBY STATES *****

CITY           SKY/WX    TMP DP  RH WIND       PRES   REMARKS
GLASGOW MT     PTCLDY    41  35  79 NW21      30.01R
GREAT FALLS MT PTCLDY    39  26  59 SW13      30.15S
CHEYENNE WY    CLEAR     53  18  25 NW22G33   30.04R
SCOTTSBLUFF NE CLEAR     52  20  28 NW12      30.01R
OMAHA NE       PTCLDY    43  32  65 S23       29.87F
DES MOINES IA  PTCLDY    38  24  57 S17       30.00F
DAVENPORT IA   PTCLDY    32  17  54 S15       30.15F WCI  22
CHICAGO IL     PTCLDY    25  14  63 S7        30.23F WCI  17
EAU CLAIRE WI  MOCLDY    35  14  42 S13       29.95F
LA CROSSE WI   MOCLDY    37  17  44 S20G29    30.01F
$$

  *****  SOME NATIONAL WEATHER *****

CITY           SKY/WX    TMP DP  RH WIND       PRES   REMARKS
LA GUARDIA NY  CLOUDY    27  12  53 NW15      30.14S WCI  15
RALEIGH NC     CLEAR     29  11  47 CALM      30.31S
ATLANTA GA     CLEAR     35  19  52 NW8       30.29R
NEW ORLEANS LA CLEAR     57  50  77 SE7       30.23S
OKLAHOMA CITY  CLEAR     59  45  59 SE20      29.97F
ALBUQUERQUE NM CLEAR     55  15  20 SE5       30.15S
SALT LAKE CITY CLEAR     48  26  42 NW7       30.27R
LOS ANGELES CA PTCLDY    59  57  93 SW3       30.05F
BOISE ID       CLEAR     42  27  55 SE5       30.32R
SEATTLE WA     CLOUDY    51  41  68 S3        30.36R
$$

*** WEATHER ACROSS MANITOBA...SASKATCHEWAN AND ONTARIO ***
                ***ONTARIO***

CITY           SKY/WX    TMP DP  RH WIND       PRES   REMARKS
GERALDTON      PTCLDY    25  10  54 S10G22    29.74F WCI  15
THUNDER BAY    MOCLDY    36  18  48 SW14      29.78F
SIOUX LOOKOUT  LGTSLEET  36  25  64 S13G21    29.54F
TORONTO        CLEAR     16   7  67 W7        30.25F WCI   6
BIG TROUT LK   LGT SNOW  30  30 100 SW7       29.42F VSB 1   WCI  23
PICKLE LAKE    NOT AVBL
DRYDEN         CLOUDY    36  27  69 S18G26    29.52F
KENORA         LGT RAIN  36  30  80 S16       29.47F
$$
                *** MANITOBA***

CITY           SKY/WX    TMP DP  RH WIND       PRES   REMARKS
BRANDON        LGT RAIN  39  37  93 N15       29.56R
DAUPHIN        LGT RAIN  36  34  93 NW14G20   29.63R
ISLAND LAKE    LGT SNOW  32  32 100 N5        29.43R
PILOT MOUND      N/A     41  39  93 NW20G25     N/A
THE PAS        CLEAR     36  30  80 NW12      29.64R
THOMPSON       PTCLDY    32  30  93 NW8       29.54R WCI  25
WINNIPEG       CLOUDY    41  36  81 SW12G20   29.43F
LYNN LAKE      CLOUDY    30  25  80 W7        29.59S WCI  23
CHURCHILL      FLURRIES  12   9  85 N22G30    29.57R WCI  -7
GILLAM         CLOUDY    32  30  93 NW14      29.45R WCI  22
$$
                ***SASKATCHEWAN***

CITY           SKY/WX    TMP DP  RH WIND       PRES   REMARKS
ESTEVAN        CLOUDY    39  34  81 N26G40    29.74R
KINDERSLEY     CLEAR     34  32  93 W7        29.97R
LLOYDMINSTER   CLEAR     32  30  93 W8        29.91R WCI  25
PRINCE ALBERT  CLEAR     30  25  80 W8        29.82R WCI  23
REGINA         CLEAR     34  34 100 NW16      29.85R WCI  23
YORKTON        CLEAR     36  32  87 NW13G20   29.72R
N. BATTLEFORD  CLEAR     36  34  93 NW10      29.93R
LA RONGE       PTCLDY    34  21  60 W6        29.75R
SASKATOON      CLEAR     32  28  86 W7        29.90R
SWIFT CURRENT  CLEAR     34  34 100 W9        29.97R
$$
NOTE: THESE ARE AUTOMATED STATIONS WITH LIMITED QUALITY CONTROL
      "FAIR" INDICATES FEW OR NO CLOUDS BELOW 12,000 FEET WITH NO
      SIGNIFICANT WEATHER AND/OR OBSTRUCTIONS TO VISIBILITY.
      SKY/WX - SKY CONDITION AND SIGNIFICANT WEATHER.
      TMP - AIR TEMPERATURE.    DP   - DEWPOINT TEMPERATURE.
      RH  - RELATIVE HUMIDITY.  PRES - PRESSURE.
      HX  - HEAT INDEX.         WCI  - WIND CHILL INDEX.
$



USA.gov is the U.S. government's official web portal to all federal, state and local government web resources and services.